Andravida, Greece

3:29 AM EET on February 23, 2018 (GMT +0200)
Andravida Air Base

Weather History for LGAD - April, 2013

Change the Weather History Date:

Friday, April 5, 2013

  Actual Average Record
Temperature  
Mean Temperature 62 °F -  
Max Temperature 76 °F 66 °F 76 °F (2013)
Min Temperature 47 °F 48 °F 42 °F (1997)
Degree Days  
Heating Degree Days 4    
Growing Degree Days 12 (Base 50)    
Moisture  
Dew Point 44 °F    
Average Humidity 54    
Maximum Humidity 88    
Minimum Humidity 17    
Precipitation  
Precipitation 0.00 in - - ()
Sea Level Pressure  
Sea Level Pressure 29.81 in    
Wind  
Wind Speed 10 mph ()    
Max Wind Speed 32 mph    
Max Gust Speed 52 mph    
Visibility 6.2 miles    
Events      
Averages and records for this station are not official NWS values.
T = Trace of Precipitation, MM = Missing Value Source: Averaged Metar Reports

Daily Weather History Graph

Daily Weather History Graph

Search for Another Location

Airport or City:

Trip Planner

Search our weather history database for the weather conditions in past years. The results will help you decide how hot, cold, wet, or windy it might be!

Date:

Astronomy

Apr. 05, 2013 Rise Set
Actual Time 7:14 AM EEST 8:01 PM EEST
Civil Twilight 6:47 AM EEST 8:28 PM EEST
Nautical Twilight 6:16 AM EEST 8:59 PM EEST
Astronomical Twilight 5:43 AM EEST 9:32 PM EEST
Moon 4:04 AM EEST (4/5) 3:09 PM EEST (4/5)
Length of Visible Light 13h 40m
Length of Day
12h 47m
Waning Crescent, 26% of the Moon is Illuminated
Apr 5
Waning Crescent
Apr 10
New
Apr 18
First Quarter
Apr 25
Full
May 2
Last Quarter

Hourly Weather History & Observations

Time (EEST) Temp. Dew Point Humidity Pressure Visibility Wind Dir Wind Speed Gust Speed Precip Events Conditions
12:20 AM 53.6 °F 48.2 °F 82% 29.98 in 6.2 mi SE 5.8 mph - N/A   Scattered Clouds
12:50 AM 51.8 °F 48.2 °F 88% 29.95 in 6.2 mi ESE 6.9 mph - N/A   Scattered Clouds
3:00 AM 49 °F 46 °F 83% 29.94 in 6 mi Calm Calm - -   Scattered Clouds
4:20 AM 50.0 °F 46.4 °F 87% 29.89 in 6.2 mi Calm Calm - N/A   Partly Cloudy
4:50 AM 50.0 °F 44.6 °F 82% 29.89 in 6.2 mi Calm Calm - N/A   Partly Cloudy
5:50 AM 48.2 °F 44.6 °F 87% 29.89 in - Calm Calm - N/A   Clear
6:20 AM 48.2 °F 44.6 °F 87% 29.89 in - Calm Calm - N/A   Clear
6:50 AM 48.2 °F 44.6 °F 87% 29.86 in 6.2 mi Calm Calm - N/A   Mostly Cloudy
7:20 AM 50.0 °F 44.6 °F 82% 29.86 in 6.2 mi Calm Calm - N/A   Scattered Clouds
7:50 AM 50.0 °F 44.6 °F 82% 29.83 in 6.2 mi Calm Calm - N/A   Scattered Clouds
8:20 AM 51.8 °F 46.4 °F 82% 29.86 in 6.2 mi Calm Calm - N/A   Mostly Cloudy
8:50 AM 55.4 °F 48.2 °F 77% 29.86 in 6.2 mi West 4.6 mph - N/A   Mostly Cloudy
9:00 AM 55 °F 48 °F 71% 29.87 in 6 mi West 4.6 mph - -   Scattered Clouds
9:20 AM 55.4 °F 48.2 °F 77% 29.83 in 6.2 mi South 4.6 mph - N/A   Mostly Cloudy
9:50 AM 57.2 °F 48.2 °F 72% 29.83 in 6.2 mi SE 6.9 mph - N/A   Mostly Cloudy
10:20 AM 60.8 °F 48.2 °F 63% 29.80 in 6.2 mi ESE 8.1 mph - N/A   Mostly Cloudy
10:50 AM 69.8 °F 32.0 °F 25% 29.83 in 6.2 mi SSE 12.7 mph - N/A   Mostly Cloudy
11:20 AM 71.6 °F 30.2 °F 22% 29.80 in 6.2 mi SSE 15.0 mph - N/A   Mostly Cloudy
11:50 AM 71.6 °F 30.2 °F 22% 29.80 in 6.2 mi SSE 19.6 mph 31.1 mph N/A   Mostly Cloudy
12:20 PM 73.4 °F 28.4 °F 19% 29.77 in 6.2 mi SSE 24.2 mph 36.8 mph N/A   Mostly Cloudy
12:50 PM 75.2 °F 28.4 °F 18% 29.74 in 6.2 mi SSE 24.2 mph 38.0 mph N/A   Mostly Cloudy
1:20 PM 77.0 °F 30.2 °F 18% 29.77 in 6.2 mi SSE 25.3 mph 39.1 mph N/A   Mostly Cloudy
1:50 PM 77.0 °F 33.8 °F 21% 29.74 in 6.2 mi SSE 25.3 mph 41.4 mph N/A   Mostly Cloudy
2:20 PM 77.0 °F 35.6 °F 22% 29.74 in 6.2 mi South 31.1 mph 51.8 mph N/A   Mostly Cloudy
2:50 PM 77.0 °F 39.2 °F 26% 29.74 in 6.2 mi South 27.6 mph 44.9 mph N/A   Mostly Cloudy
3:00 PM 76 °F 39 °F 17% 29.75 in 6 mi South 27.6 mph - -   Partly Cloudy
3:20 PM 75.2 °F 39.2 °F 27% 29.74 in 6.2 mi South 28.8 mph 43.7 mph N/A   Mostly Cloudy
3:50 PM 73.4 °F 41.0 °F 31% 29.74 in 6.2 mi South 32.2 mph 50.6 mph N/A   Mostly Cloudy
4:20 PM 73.4 °F 42.8 °F 33% 29.74 in 6.2 mi South 26.5 mph 41.4 mph N/A   Mostly Cloudy
4:50 PM 71.6 °F 44.6 °F 38% 29.74 in 6.2 mi South 26.5 mph 40.3 mph N/A   Scattered Clouds
5:20 PM 71.6 °F 44.6 °F 38% 29.74 in 6.2 mi South 27.6 mph 46.0 mph N/A   Scattered Clouds
5:50 PM 69.8 °F 46.4 °F 43% 29.74 in 6.2 mi South 24.2 mph 35.7 mph N/A   Mostly Cloudy
6:20 PM 69.8 °F 46.4 °F 43% 29.74 in 6.2 mi South 25.3 mph 41.4 mph N/A   Mostly Cloudy
6:50 PM 68.0 °F 48.2 °F 49% 29.77 in 6.2 mi South 21.9 mph 34.5 mph N/A   Mostly Cloudy
7:20 PM 66.2 °F 48.2 °F 52% 29.80 in 6.2 mi South 19.6 mph - N/A   Mostly Cloudy
7:50 PM 66.2 °F 48.2 °F 52% 29.80 in 6.2 mi South 18.4 mph - N/A   Scattered Clouds
8:20 PM 66.2 °F 48.2 °F 52% 29.80 in 6.2 mi South 16.1 mph - N/A   Scattered Clouds
8:50 PM 64.4 °F 50.0 °F 59% 29.80 in 6.2 mi South 11.5 mph - N/A   Scattered Clouds
9:00 PM 65 °F 49 °F 46% 29.83 in 6 mi South 11.5 mph - -   Scattered Clouds
9:20 PM 64.4 °F 50.0 °F 59% 29.83 in 6.2 mi South 13.8 mph - N/A   Scattered Clouds
9:50 PM 62.6 °F 50.0 °F 63% 29.83 in 6.2 mi South 12.7 mph - N/A   Scattered Clouds
10:20 PM 62.6 °F 48.2 °F 59% 29.83 in 6.2 mi South 12.7 mph - N/A   Scattered Clouds
10:50 PM 60.8 °F 48.2 °F 63% 29.83 in 6.2 mi South 9.2 mph - N/A   Scattered Clouds
11:20 PM 60.8 °F 48.2 °F 63% 29.83 in 6.2 mi South 9.2 mph - N/A   Scattered Clouds
11:50 PM 62.6 °F 48.2 °F 59% 29.83 in 6.2 mi South 11.5 mph - N/A   Scattered Clouds